2DJGAME! NOVO
 找回密碼
 註冊
搜索
訂閱

查看新帖

標題 版塊/群組 作者 回覆/查看 最後發表
[201219][Mugcat] 魔法少女ユリコ ~彼女の奥の手はオナニーブースト~[224MB]attachment  ...2 『 新作發佈區 / New Game Release 』 2D新作發佈組 2020-12-21 04:59 172289 yanjuechen 2021-01-11 20:32
[201219][プルート] 魔物ガチャ ~D.D.D~ (Ver.1.1)[1.6G]attachment  ...2 『 新作發佈區 / New Game Release 』 2D新作發佈組 2020-12-21 04:58 203124 yanjuechen 2021-01-11 20:32
[201219][キラキラ地下帝国] 天才魔法少女だけど巷で話題のトラップダンジョンも余裕っ!!! (Ver.2020-12-20/1.01)[601MB]attachment  ...2 『 新作發佈區 / New Game Release 』 2D新作發佈組 2020-12-21 04:57 202507 yanjuechen 2021-01-11 20:32
[201214][谷奥の蛙] 魔女マリカと触手トラップダンジョン[497MB]attachment  ...2 『 新作發佈區 / New Game Release 』 2D新作發佈組 2020-12-21 04:56 161855 yanjuechen 2021-01-11 20:31
[200919][しぼりたて 生] 精液吸収!半天使[510MB]attachment  ...2 『 新作發佈區 / New Game Release 』 2D新作發佈組 2020-12-21 04:55 172130 yanjuechen 2021-01-11 20:31
[181028] ~necromancy~エミリの逃亡 [487M] [Ver.1.03] [+度盘] + [389MB] [Ver.1.06] [+版本]attachment heatlevel  ...2345 『 新作發佈區 / New Game Release 』 2D新作發佈組 2020-12-20 05:36 6412030 yanjuechen 2021-01-11 20:31
[201219][目隠し娘] 淫乱アルケミスト・リルフィ ~私、淫乱なんかじゃありません~[1.59G]attachment  ...2 『 新作發佈區 / New Game Release 』 2D新作發佈組 2020-12-20 05:27 184537 yanjuechen 2021-01-11 20:30
[201218][くろわし屋] 魔神の迷宮[139MB]attachment  ...2 『 新作發佈區 / New Game Release 』 2D新作發佈組 2020-12-20 05:26 191826 yanjuechen 2021-01-11 20:30
[201213][めかぶ亭] 【AVG版】Magical Girl Bad End S1[259MB]attachment 『 新作發佈區 / New Game Release 』 2D新作發佈組 2020-12-20 05:25 141715 yanjuechen 2021-01-11 20:29
[190515][墳丹吉] Momo Gets Laid[76.4MB]attachment 『 新作發佈區 / New Game Release 』 2D新作發佈組 2020-12-20 05:24 131373 yanjuechen 2021-01-11 20:29
[200808][きのこおにぎり] 1回300円 - ア○ールレーン[58.9MB]attachment 『 新作發佈區 / New Game Release 』 2D新作發佈組 2020-12-20 05:23 141294 yanjuechen 2021-01-11 20:28
[160527][スミレ] 僕と恋するポンコツアクマ。 すっごいえっち! + Steam版(CN+EN)[+度盘][+版本][3.87G+3.99G]attachment heatlevel  ...2345 『 新作發佈區 / New Game Release 』 2D新作發佈組 2020-12-20 03:19 7424318 yanjuechen 2021-01-11 20:28
[201218][capture1] サキュバス☆コネクト!![1.11G]attachment  ...2 『 新作發佈區 / New Game Release 』 2D新作發佈組 2020-12-19 08:56 224124 yanjuechen 2021-01-11 20:28
[201218][しめなわん] ロレーナと遺跡の国 ~銃と魔法のトレジャーハンター~[1.17G]attachment  ...2 『 新作發佈區 / New Game Release 』 2D新作發佈組 2020-12-19 08:55 223752 yanjuechen 2021-01-11 20:27
[201216][KineticDog] 無限留年[175MB]attachment  ...2 『 新作發佈區 / New Game Release 』 2D新作發佈組 2020-12-19 08:54 161819 yanjuechen 2021-01-11 20:26
[201216][RR研究会] Moon Reunion -状態異常耐性0の転生勇者がドレインされすぎるリアルタイムRPG- (Ver.2020-12-17/1.02)[2.93G]attachment 『 新作發佈區 / New Game Release 』 2D新作發佈組 2020-12-19 08:53 133268 yanjuechen 2021-01-11 20:26
[200920][苗木堂] 妖狐が転がりこんできた (Ver.2020-09-28/1.1.1)[134MB]attachment 『 新作發佈區 / New Game Release 』 2D新作發佈組 2020-12-19 08:53 141406 yanjuechen 2021-01-11 20:25
[191119][有難うナス] ガールズとゴブリン[393MB]attachment 『 新作發佈區 / New Game Release 』 2D新作發佈組 2020-12-19 08:52 131592 yanjuechen 2021-01-11 20:24
[BD长期]对魔忍 c90 新发补合集 (mp3)(938mb) 『同人音樂 & 音聲 』 asd780475866 2016-09-24 23:30 113487 Ballade 2021-01-11 16:03
ほしうた [3.25G][BD]attach_img agree  ...2 『 遊戲發佈區 / Game Release Section 』 乖宝宝 2016-01-01 10:45 261783 zychuh 2021-01-11 13:14
三射面談~連鎖する恥辱・調教の学園~+CG- [售價 1 DB]  ...2 『 遊戲發佈區 / Game Release Section 』 sdasaf12 2019-06-21 20:55 161773 风见空 2021-01-11 12:12
おねえさんに任せなさいっ! ~寮母と上司の柔らかおっぱいに挟まれて~- [售價 1 DB] 『 遊戲發佈區 / Game Release Section 』 sdasaf12 2019-06-23 16:39 71191 风见空 2021-01-11 12:11
求隔壁全GAL的网站 ...23 『 PC遊戲討論區 』 七谢樱 2020-12-15 02:07 341169 风见空 2021-01-11 11:47
絶頂尋問/洗脳機姦 [266.6M] [度盘]- [售價 2 DB] attach_img 『 遊戲發佈區 / Game Release Section 』 qq1271329019 2020-08-04 06:37 9656 风见空 2021-01-11 11:42
対魔忍 RPGX [度盘]- [售價 2 DB]  ...23 『 遊戲發佈區 / Game Release Section 』 柿子巧克力 2018-11-28 15:09 383107 G.T2004 2021-01-11 05:55
[靴下汉化组] (C97) [とんずら道中 (かざわ)] 月兎孕記 うどんげかんきんはらませ (東方Project) 『 漢化本 』 qq3870990 2020-11-18 17:57 4236 cywy 2021-01-11 01:43
[靴下汉化组] [風芸WindArTeam (WindArt)] 恋姫ラブマキ!!8 -西木野家の事情について- (ラブライブ!) [DL版] 『 漢化本 』 qq3870990 2020-11-17 18:25 3227 cywy 2021-01-11 01:42
[靴下汉化组] (C96) [ねるねる (ねるね)] 海と媚薬 (アルスラーン戦記) 『 漢化本 』 qq3870990 2020-11-16 14:07 3234 cywy 2021-01-11 01:42
[靴下汉化组] [ひっさつわざ (ひっさつくん)] 無人駅II [DL版] 『 漢化本 』 qq3870990 2020-11-16 12:31 3202 cywy 2021-01-11 01:42
[靴下汉化组] [はぴねすみるく (おびゃー)] 変態こいしは専用マゾホール♥ (東方Project) [DL版] 『 漢化本 』 qq3870990 2020-11-14 22:21 3207 cywy 2021-01-11 01:41
[061027][チッコ] 闇と光のヴァルキリー[580MB]attachment  ...2 『 新作發佈區 / New Game Release 』 2D新作發佈組 2020-12-19 08:51 161802 幽幽子 2021-01-10 14:52
[050526][チッコ] ドラゴン・スレイブ[725MB]attachment 『 新作發佈區 / New Game Release 』 2D新作發佈組 2020-12-19 08:50 131707 幽幽子 2021-01-10 14:51
[201127][hibiki works]水莲と紫苑 [bmp 74+405m][MG][45D+]- [售價 2 DB]  ...2 『 遊戲CG發佈區 / New Game CG Release 』 a93b5540 2020-12-11 12:46 17763 18538069466 2021-01-10 11:02
ゴブリンの巣穴 patch.5 雌堕アップグレードデータ結合済み(自购)[5.2G][度盘](21-1-12更新)- [售價 5 DB] 『 遊戲發佈區 / Game Release Section 』 星曪 2020-12-17 07:45 3879 风见空 2021-01-10 10:54
魔界戦记ディスガイア4 [MG] [4.2GB]attach_img  ...2 『 遊戲發佈區 / Game Release Section 』 duckkyo2001 2020-09-22 14:20 211287 风见空 2021-01-10 10:54
風紀委員長 聖薇 [3.45G][度盘]- [售價 2 DB]  ...2 『 遊戲發佈區 / Game Release Section 』 星雪之诗 2016-04-11 19:43 152473 风见空 2021-01-10 10:39
[201217][ぺぺろんちーの] ゴブリンの巣穴 patch.5 雌堕アップグレードデータ[845MB]attachment  ...2 『 新作發佈區 / New Game Release 』 2D新作發佈組 2020-12-18 04:39 202984 yanjuechen 2021-01-10 10:30
[201215][ものつーる] よこしまサロン[651MB]attachment  ...2 『 新作發佈區 / New Game Release 』 2D新作發佈組 2020-12-17 10:50 212812 yanjuechen 2021-01-10 10:30
[201212][スタジオねこキック] 女忍者 枫[754MB]attachment  ...2 『 新作發佈區 / New Game Release 』 2D新作發佈組 2020-12-17 10:49 243023 yanjuechen 2021-01-10 10:29
[201006][PsychoGameFan] Cyber Girl 1.0: Booting[120MB]attachment  ...2 『 新作發佈區 / New Game Release 』 2D新作發佈組 2020-12-17 10:48 151774 yanjuechen 2021-01-10 10:28
[160111][Combin Ation] 生存者サラ2 第一章 -非人道な農場-[191MB]attachment  ...2 『 新作發佈區 / New Game Release 』 2D新作發佈組 2020-12-17 10:46 202066 yanjuechen 2021-01-10 10:25
[200916][区画OTZ] ピクセルアニメ~Succubus (Ver.2020-12-13)[16.1MB]attachment  ...2 『 新作發佈區 / New Game Release 』 2D新作發佈組 2020-12-17 10:45 151566 yanjuechen 2021-01-10 10:25
[201214][三代錆] 魔王城の隠居参謀[251MB]attachment  ...2 『 新作發佈區 / New Game Release 』 2D新作發佈組 2020-12-16 04:32 192492 yanjuechen 2021-01-10 10:25
[191226][下学上達屋] 聖騎士様に憑依してビッチにおとしめるRPG[377MB]attachment  ...2 『 新作發佈區 / New Game Release 』 2D新作發佈組 2020-12-16 04:31 172638 yanjuechen 2021-01-10 10:24
[170526][第一実験室] 乙女tic綾[661MB]attachment  ...2 『 新作發佈區 / New Game Release 』 2D新作發佈組 2020-12-15 04:52 202819 yanjuechen 2021-01-10 10:24
[201204][papers] ママサプリ ダメママ編[1.51G]attachment  ...2 『 新作發佈區 / New Game Release 』 2D新作發佈組 2020-12-15 04:51 215170 yanjuechen 2021-01-10 10:24
[170204][第一実験室] 狩人の艶書[349MB]attachment  ...2 『 新作發佈區 / New Game Release 』 2D新作發佈組 2020-12-15 04:49 172567 yanjuechen 2021-01-10 10:22
[201210][瀧音MELO] パンダラクエスト[646MB]attachment  ...2 『 新作發佈區 / New Game Release 』 2D新作發佈組 2020-12-14 07:49 213213 yanjuechen 2021-01-10 10:21
不良にハメられて受精する巨乳お母さん~イキ地獄に堕ちた家族のゲーム~ [410M][度盘] ...2 『 遊戲發佈區 / Game Release Section 』 hea 2016-03-02 20:12 163076 风见空 2021-01-10 10:21
[200127][7センチ] 大穴デスゲーム -命の災厄- (Ver.2020-01-29/1.01)[262MB]attachment  ...2 『 新作發佈區 / New Game Release 』 2D新作發佈組 2020-12-14 07:49 202422 yanjuechen 2021-01-10 10:21

手機版|Archiver|2DJGAME 多元化AMCG站

GMT+8, 2021-01-24 12:47 , Processed in 1.210951 second(s), 12 queries .

• 2DJGAME

© 2003-2019

回頂部